Tracking 32938 objects as of 13-Jan-2026
HD Live streaming from Space Station
objects crossing your sky now

COSMOS 839 DEB

Track COSMOS 839 DEB now!
10-day predictions


NORAD ID: 10465
Int'l Code: 1976-067AJ
Perigee: 862.1 km
Apogee: 2,003.3 km
Inclination: 65.6 °
Period: 114.3 minutes
Semi major axis: 7803 km
RCS: 0.0294 m2 (small)
Launch date: July 8, 1976
Source: Commonwealth of Independent States (former USSR) (CIS)
Launch site: PLESETSK MISSILE AND SPACE COMPLEX (PKMTR)

Note: This is SATELLITE DEBRIS
Your satellite tracking list
Your tracking list is empty




NASA's NSSDC Master Catalog

Two Line Element Set (TLE):
1 10465U 76067AJ  26012.64937531  .00000025  00000-0  17653-3 0  9993
2 10465  65.5668 117.2163 0731162 145.0303 220.1057 12.59368397546792
Source of the keplerian elements: AFSPC